User: anonymous   Login
Location: Central Falls
(41.8900°N, 71.3929°W)
Time: 07:26:13
(UTC+00:00)
Language:

Sep Motor Cover - Orbit

View from above orbital plane
View from above orbital plane
View from above satellite
View from above satellite

Ground track
Ground track

The orbit data is extracted from the following two-line orbital elements,

1 23406U 94077C   24141.28666634  .00000229  00000-0  25421-3 0  9995
2 23406  71.0309  94.5333 0203889 277.0877 201.1164 13.73119993477078
Epoch (UTC): 20 May 2024 06:52:47
Eccentricity: 0.0203889
inclination: 71.0309°
perigee height: 838 km
apogee height: 1138 km
right ascension of ascending node: 94.5333°
argument of perigee: 277.0877°
revolutions per day: 13.73119993
mean anomaly at epoch: 201.1164°
orbit number at epoch: 47707

The dashed part of the orbit path shows where the satellite is in the earth's shadow,  

DLR